This is the latest recevied weather packets stored in our database for station/object W3TMB. If no packets are shown the sender has not sent any weather packets the latest 10 day(s).
| Time | Temp. | Humidity | Pressure | Rain* | Wind** | Luminosity | Snow |
|---|---|---|---|---|---|---|---|
| 1777703017 | 6.11° C | 91% | 1011.3 hPa | 0 mm | - | 0 W/m² | - |
| 1777702716 | 6.11° C | 89% | 1011.2 hPa | 0 mm | - | 0 W/m² | - |
| 1777702413 | 6.11° C | 90% | 1011.2 hPa | 0 mm | - | 0 W/m² | - |
| 1777702109 | 6.67° C | 90% | 1011.2 hPa | 0 mm | - | 0 W/m² | - |
| 1777701804 | 6.11° C | 90% | 1011.1 hPa | 0 mm | - | 0 W/m² | - |
| 1777701502 | 6.67° C | 91% | 1011 hPa | 0 mm | - | 0 W/m² | - |
| 1777701200 | 6.67° C | 91% | 1011.3 hPa | 0 mm | - | 0 W/m² | - |
| 1777700900 | 6.67° C | 93% | 1011.1 hPa | 0 mm | - | 0 W/m² | - |
| 1777700597 | 6.67° C | 94% | 1011.2 hPa | 0 mm | - | 0 W/m² | - |
| 1777700294 | 6.67° C | 92% | 1011.1 hPa | 0 mm | - | 0 W/m² | - |
| 1777699991 | 6.67° C | 93% | 1011.1 hPa | 1.78 mm | - | 0 W/m² | - |
| 1777699689 | 6.67° C | 92% | 1010.9 hPa | 1.78 mm | - | 0 W/m² | - |
| 1777699387 | 6.67° C | 91% | 1011 hPa | 0 mm | - | 0 W/m² | - |
| 1777699084 | 7.22° C | 91% | 1010.9 hPa | 1.27 mm | - | 0 W/m² | - |
| 1777698783 | 7.22° C | 92% | 1010.6 hPa | 0 mm | - | 0 W/m² | - |
| 1777698478 | 7.22° C | 93% | 1010.8 hPa | 1.78 mm | - | 0 W/m² | - |
| 1777698174 | 7.22° C | 96% | 1010.8 hPa | 1.78 mm | - | 0 W/m² | - |
| 1777697872 | 7.78° C | 96% | 1010.8 hPa | 0 mm | - | 0 W/m² | - |
| 1777697569 | 7.22° C | 97% | 1010.6 hPa | 0 mm | - | 0 W/m² | - |
| 1777697266 | 7.22° C | 99% | 1010.5 hPa | 0 mm | - | 0 W/m² | - |
| 1777696962 | 7.78° C | 99% | 1010.6 hPa | 0 mm | - | 0 W/m² | - |
| 1777696659 | 7.78° C | 99% | 1010.6 hPa | 0 mm | - | 0 W/m² | - |
| 1777696357 | 7.78° C | 99% | 1010.6 hPa | 0 mm | - | 0 W/m² | - |
| 1777696056 | 8.33° C | 99% | 1010.6 hPa | 0 mm | - | 0 W/m² | - |
| 1777695754 | 7.78° C | 99% | 1010.5 hPa | 0 mm | - | 0 W/m² | - |
* Rain latest hour (hover to see other rain measurements)
** Current wind speed in m/s (hover to see current wind gust speed)